Location: Eaton
(41.3139°N, 82.0207°W)
Time: 16:14:49
(UTC+00:00)

USA 307 - Pass Details

Date: 17 June 2021
Orbit: 565 x 576 km, 54.0° (Epoch: 17 July)

Event Time Altitude Azimuth Distance (km) Brightness Sun altitude
Exits shadow 08:34:05 16° 250° (WSW) 1,523 4.5 -12.4°
Maximum altitude 08:37:20 54° 325° (NW) 694 3.4 -12.0°
Drops below altitude 10° 08:41:30 10° 43° (NE) 1,866 7.1 -11.4°
Sets 08:43:48 0° 48° (NE) 2,764 8.6 -11.1°
